Change the Weather History Date:

Thursday, September 13, 2012

  Actual Average Record
Temperature  
Mean Temperature 92 °F -  
Max Temperature 104 °F 100 °F 111 °F (1948)
Min Temperature 81 °F 74 °F 62 °F (1952)
Cooling Degree Days 28    
Growing Degree Days 42 (Base 50)    
Moisture  
Dew Point 39 °F    
Average Humidity 18    
Maximum Humidity 34    
Minimum Humidity 9    
Precipitation  
Precipitation 0.00 in - - ()
Sea Level Pressure  
Sea Level Pressure 29.89 in    
Wind  
Wind Speed 12 mph (North)    
Max Wind Speed 28 mph    
Max Gust Speed 32 mph    
Visibility 10 miles    
Events      
Averages and records for this station are not official NWS values.
T = Trace of Precipitation, MM = Missing Value Source: NWS Daily Summary

Daily Weather History Graph

Daily Weather History Graph

Search for Another Location

Airport or City:

Trip Planner

Search our weather history database for the weather conditions in past years. The results will help you decide how hot, cold, wet, or windy it might be!

Date:

Astronomy

Sep. 13, 2012 Rise Set
Actual Time 6:20 AM PDT 6:47 PM PDT
Civil Twilight 5:55 AM PDT 7:12 PM PDT
Nautical Twilight 5:25 AM PDT 7:42 PM PDT
Astronomical Twilight 4:55 AM PDT 8:12 PM PDT
Moon 3:48 AM PDT (9/13) 5:09 PM PDT (9/13)
Length of Visible Light 13h 17m
Length of Day
12h 26m
Waning Crescent, 7% of the Moon is Illuminated
Sep 13
Waning Crescent
Sep 15
New
Sep 22
First Quarter
Sep 29
Full
Oct 8
Last Quarter

Hourly Weather History & Observations

Time (PDT) Temp. Dew Point Humidity Pressure Visibility Wind Dir Wind Speed Gust Speed Precip Events Conditions
12:56 AM 84.0 °F 52.0 °F 33% 29.96 in 10.0 mi NW 5.8 mph - N/A   Clear
1:56 AM 84.0 °F 52.0 °F 33% 29.86 in 10.0 mi ENE 4.6 mph - N/A   Clear
2:56 AM 84.0 °F 52.0 °F 33% 29.87 in 10.0 mi NNE 5.8 mph - N/A   Clear
3:56 AM 82.9 °F 52.0 °F 34% 29.88 in 10.0 mi NNW 10.4 mph - N/A   Clear
4:56 AM 82.9 °F 51.1 °F 33% 29.90 in 10.0 mi NNW 9.2 mph - N/A   Clear
5:56 AM 81.0 °F 48.9 °F 33% 29.91 in 10.0 mi North 11.5 mph - N/A   Clear
6:56 AM 82.0 °F 44.1 °F 26% 29.94 in 10.0 mi North 9.2 mph - N/A   Clear
7:56 AM 86.0 °F 37.0 °F 18% 29.95 in 10.0 mi North 17.3 mph 23.0 mph N/A   Clear
8:56 AM 89.1 °F 32.0 °F 13% 29.96 in 10.0 mi North 20.7 mph 29.9 mph N/A   Clear
9:56 AM 91.9 °F 30.0 °F 11% 29.96 in 10.0 mi North 27.6 mph 32.2 mph N/A   Clear
10:56 AM 95.0 °F 30.9 °F 10% 29.96 in 10.0 mi NNE 21.9 mph - N/A   Clear
11:56 AM 98.1 °F 33.1 °F 10% 29.94 in 10.0 mi NNE 19.6 mph 25.3 mph N/A   Clear
12:56 PM 100.9 °F 34.0 °F 10% 29.91 in 10.0 mi North 21.9 mph - N/A   Clear
1:56 PM 102.0 °F 35.1 °F 10% 29.87 in 10.0 mi NNE 20.7 mph - N/A   Clear
2:56 PM 104.0 °F 35.1 °F 9% 29.84 in 10.0 mi NNE 24.2 mph 28.8 mph N/A   Clear
3:56 PM 104.0 °F 34.0 °F 9% 29.82 in 10.0 mi NNE 19.6 mph 27.6 mph N/A   Clear
4:56 PM 102.9 °F 33.1 °F 9% 29.82 in 10.0 mi North 17.3 mph - N/A   Clear
5:56 PM 102.0 °F 33.1 °F 9% 29.82 in 10.0 mi NNE 18.4 mph - N/A   Clear
6:56 PM 98.1 °F 34.0 °F 11% 29.83 in 10.0 mi North 15.0 mph - N/A   Clear
7:56 PM 93.9 °F 36.0 °F 13% 29.85 in 10.0 mi North 11.5 mph - N/A   Clear
8:56 PM 91.9 °F 37.0 °F 15% 29.88 in 10.0 mi North 8.1 mph - N/A   Clear
9:56 PM 90.0 °F 37.9 °F 16% 29.90 in 10.0 mi NNW 8.1 mph - N/A   Clear
10:56 PM 90.0 °F 36.0 °F 15% 29.90 in 10.0 mi NNW 8.1 mph - N/A   Clear
11:56 PM 89.1 °F 35.1 °F 15% 29.90 in 10.0 mi NNW 9.2 mph - N/A   Clear